Dewpoint
18 21 20 21 16 17 17 18 14 15 17 22 26 28 25 24 25 24 25 25 26 26 27 28 29 31 33 35 36 37 38 40 42 45 49 54 61 60 60 61 61 60 60 60
18 17 16 18 20 18 19 21 20 17 17 25 25 27 26 25 25 25 26 26 27 28 28 27 28 32 32 34 34 37 38 40 43 47 50 53 60 60 60 60 60 60 60 61
11 23 14 11 20 22 22 24 23 16 22 25 24 26 28 27 26 26 27 28 28 29 30 30 32 33 33 34 36 37 40 42 45 48 52 52 57 61 60 60 61 60 60 60
20 21 4 17 26 25 23 22 26 24 25 26 26 28 29 29 28 28 29 29 29 30 31 32 34 34 34 35 36 38 39 41 43 46 48 50 55 60 60 61 61 61 61 61
13 14 17 14 22 23 21 17 24 22 23 24 28 26 26 29 30 30 30 31 32 32 33 33 34 34 35 35 36 37 39 40 42 45 48 50 52 55 59 60 59 60 61 61
13 8 1 14 24 26 26 12 25 26 23 23 27 18 21 27 30 30 31 32 32 32 33 33 33 34 35 34 35 36 39 40 43 45 47 48 49 53 55 57 59 59 59 59
13 12 14 20 28 23 8 15 27 28 27 26 24 24 26 31 30 32 32 31 32 32 32 32 33 34 35 34 34 37 39 41 42 44 45 46 50 51 53 55 55 55 56 56
16 9 5 27 25 18 24 29 28 24 26 28 29 30 31 31 31 31 31 32 32 30 31 32 32 33 33 33 35 37 37 38 39 42 41 40 41 41 41 43 47 49 53 54
13 11 20 26 26 30 32 30 26 24 24 24 25 26 31 30 29 30 30 31 33 30 30 31 32 33 32 34 35 35 35 36 37 39 39 39 37 37 37 38 39 39 39 41
21 23 25 30 32 28 29 26 25 24 24 23 22 22 21 23 23 23 25 24 26 29 29 29 30 31 33 35 35 36 34 35 35 36 36 38 37 36 34 34 35 35 35 36
21 25 28 25 23 25 26 26 25 24 24 24 22 21 21 17 18 20 21 22 24 27 27 27 27 29 32 31 33 35 35 35 35 35 35 35 36 36 35 34 33 33 33 34
18 22 23 22 23 25 24 25 25 25 25 25 23 21 21 19 19 20 22 22 22 22 23 24 25 26 29 30 29 31 34 34 34 35 35 35 34 34 34 34 33 33 33 33
20 22 20 21 24 24 24 25 25 26 25 25 24 23 23 21 21 24 22 23 22 23 23 25 26 26 27 30 30 29 30 32 32 32 33 34 34 34 32 33 33 33 33 33
20 23 21 20 21 21 25 26 28 26 26 27 26 25 25 24 23 23 23 24 23 23 24 24 26 26 28 29 28 28 29 29 31 31 32 32 32 33 32 32 31 31 32 32
18 18 19 17 19 20 23 25 24 25 27 28 29 28 26 25 25 25 25 25 24 24 24 24 25 26 27 29 29 29 26 28 29 29 30 30 30 31 31 31 30 30 30 30
16 17 17 18 19 21 23 25 25 25 28 29 29 29 27 26 26 26 26 25 26 25 24 24 25 27 27 28 29 28 28 27 27 26 26 28 28 28 29 29 29 30 29 29
19 19 20 20 22 23 24 25 26 28 29 29 29 29 28 28 27 28 27 25 26 26 26 25 25 28 27 28 29 29 28 27 26 25 26 25 25 25 26 28 28 28 28 29
20 21 21 21 22 25 26 27 27 28 28 29 30 30 29 29 28 28 29 26 25 26 27 25 26 28 28 28 29 29 26 26 25 25 25 25 25 24 24 24 24 26 27 28
20 22 23 22 23 24 25 26 25 28 28 28 28 29 28 29 29 28 30 26 24 22 24 25 25 27 28 28 27 29 26 25 24 25 26 25 26 26 26 25 26 27 28 27
22 24 24 23 25 26 26 26 26 27 30 28 28 30 29 28 29 28 28 27 26 23 25 25 24 26 28 28 26 27 26 25 25 25 25 25 25 27 27 27 26 27 27 28
24 24 26 27 27 29 30 30 27 30 32 31 31 30 29 32 32 31 29 25 27 23 25 23 22 24 26 25 26 27 26 25 26 25 25 27 26 26 26 27 27 27 27 27
26 25 26 28 28 28 31 31 32 34 32 32 29 28 29 30 34 31 29 26 28 22 25 25 21 21 24 23 27 26 25 27 27 27 26 26 25 24 24 25 27 28 27 27
26 26 26 28 29 29 30 31 31 31 28 30 31 32 32 33 35 32 29 29 28 23 25 26 22 20 22 27 27 26 25 26 26 27 27 27 28 20 22 25 22 25 27 26
26 26 26 27 28 28 27 28 30 33 30 33 35 35 35 35 36 37 35 29 26 24 26 26 23 21 21 26 27 25 26 25 24 24 26 25 27 27 24 22 27 21 21 21
26 26 26 27 26 27 26 27 28 30 32 34 35 35 36 36 35 35 36 31 26 25 27 25 23 22 24 26 27 26 25 26 24 22 24 22 26 26 26 26 26 26 21 22
25 25 26 26 27 27 27 28 29 30 31 31 34 36 37 37 37 37 37 34 31 27 29 28 25 25 26 27 28 27 26 26 26 25 23 24 24 25 25 25 24 24 24 23
28 28 28 27 27 27 28 29 29 30 30 32 32 34 36 37 38 36 35 35 33 31 30 30 29 28 29 28 27 28 27 27 25 26 24 23 23 20 25 25 25 24 24 23
Lifted_Index
5 5 5 5 5 5 6 6 6 6 6 8 9 10 10 10 10 9 8 8 8 7 7 7 7 7 7 6 7 7 7 7 5 2 1 -0 -2 -3 -3 -3 -2 -2 -2 -2
4 5 5 5 6 7 8 8 8 7 8 9 10 10 10 10 10 9 9 9 9 8 8 7 7 7 7 7 7 7 7 7 5 3 2 -0 -2 -3 -3 -3 -2 -2 -2 -2
4 4 4 6 8 9 9 9 9 9 10 11 11 11 11 11 11 11 10 10 10 10 9 9 8 7 7 7 7 7 6 6 5 4 2 -0 -2 -3 -3 -3 -3 -3 -2 -2
3 3 4 6 8 8 9 9 10 10 10 11 12 12 13 13 13 12 12 12 12 11 11 10 9 8 7 7 7 6 5 4 4 3 2 -0 -2 -3 -3 -3 -3 -3 -3 -2
3 3 4 6 8 8 8 9 9 10 10 11 12 12 13 13 13 13 13 13 13 13 12 11 10 9 7 6 6 5 4 3 3 2 1 -1 -2 -2 -3 -3 -3 -3 -3 -3
4 4 5 7 8 8 8 8 9 10 10 11 11 11 12 14 14 14 14 15 15 14 13 12 11 10 8 6 5 4 4 3 3 2 1 -0 -1 -2 -3 -3 -3 -3 -3 -3
5 5 6 8 9 9 8 8 9 10 10 11 11 11 12 14 14 15 15 16 16 14 13 13 12 11 9 7 5 5 5 4 3 3 2 1 -0 -1 -2 -2 -2 -2 -2 -2
6 6 7 9 10 9 9 9 10 10 11 12 12 12 13 14 15 15 16 16 16 15 14 13 12 11 10 8 7 7 6 5 4 3 3 2 1 0 -1 -1 -1 -1 -1 -1
8 8 8 9 10 10 10 10 10 10 11 12 12 13 13 15 15 16 16 17 17 16 15 13 12 11 10 9 9 8 7 6 5 4 3 2 2 1 0 0 -0 -0 -0 0
9 9 9 10 10 10 10 10 11 11 11 11 12 13 14 15 15 16 16 17 17 17 16 15 14 12 11 11 10 9 8 7 6 5 4 3 3 3 2 2 2 1 1 2
8 9 9 10 10 10 10 10 10 10 11 11 12 13 13 14 15 15 16 16 17 17 16 16 16 15 14 13 11 10 9 8 7 6 6 6 5 5 5 5 5 4 4 5
8 9 9 9 10 10 10 10 10 10 10 11 12 12 13 14 15 15 16 16 16 16 16 16 16 16 16 15 14 12 11 10 9 8 8 7 7 7 8 8 8 8 8 8
9 9 9 9 9 9 9 9 9 9 10 10 11 12 12 13 14 15 15 15 15 15 16 16 16 16 16 16 16 15 14 13 12 11 10 10 9 8 8 9 9 9 9 9
9 9 9 9 9 9 9 9 9 9 10 10 10 11 12 12 13 14 14 14 14 14 15 15 15 15 16 16 16 16 16 15 15 14 14 13 12 11 10 10 9 9 10 10
10 9 9 9 9 9 9 9 9 9 10 10 10 11 12 12 13 13 14 14 14 13 13 13 14 14 15 15 15 16 16 16 16 16 15 15 14 14 13 12 11 11 11 11
10 10 10 10 10 10 10 10 10 10 10 10 10 11 12 12 13 13 13 13 13 13 13 13 13 13 14 14 14 14 15 15 16 16 15 15 15 15 15 15 14 13 13 12
11 11 10 10 10 10 10 10 10 10 10 11 11 11 11 12 12 13 13 13 14 13 13 14 14 14 14 14 13 14 14 14 14 15 15 15 15 15 15 15 15 15 15 14
11 11 11 11 11 11 11 11 11 11 11 11 11 11 12 12 12 12 13 13 14 14 14 14 14 14 14 14 14 14 14 14 14 14 14 14 14 15 15 15 15 15 15 15
11 11 11 11 11 11 11 11 11 11 11 11 11 12 12 12 12 12 13 13 13 14 14 15 15 15 15 14 14 14 14 13 13 13 14 14 14 14 14 14 14 14 15 15
12 12 12 12 12 12 12 11 11 11 11 11 12 12 12 13 13 12 13 13 13 14 15 15 16 15 15 15 14 14 13 13 13 13 13 13 13 13 14 14 14 14 14 14
12 12 12 12 12 12 12 11 11 11 11 11 11 12 12 12 12 12 12 13 13 14 15 15 16 16 15 15 14 14 13 13 13 13 13 13 13 13 13 13 13 13 14 14
12 12 12 12 12 12 12 12 11 11 11 11 11 12 12 12 11 11 11 12 12 13 14 15 15 15 15 15 15 14 13 13 13 13 13 13 13 13 13 13 13 13 14 14
12 12 12 12 12 12 12 12 11 11 11 11 11 11 11 11 10 10 10 11 11 12 13 14 15 15 15 15 15 14 14 13 13 13 13 13 13 13 13 13 13 13 14 14
12 12 12 12 12 12 12 12 12 11 11 11 11 11 10 10 10 9 9 10 10 11 12 13 14 14 15 15 15 15 14 14 13 13 13 13 13 13 13 13 13 13 14 14
12 12 12 12 12 12 12 12 12 11 11 11 11 10 10 9 9 9 9 9 10 10 11 11 12 13 14 14 14 15 15 14 14 13 13 13 13 13 13 13 13 14 14 14
12 12 12 12 12 12 12 12 12 11 11 11 10 10 10 10 9 9 9 9 9 9 10 11 11 12 12 13 13 14 14 14 14 14 13 13 12 13 13 13 13 14 15 15
12 12 12 12 12 12 12 12 11 11 11 11 10 10 10 10 10 10 9 9 9 9 10 10 10 11 11 12 12 13 14 14 14 14 14 13 13 12 13 13 13 14 15 15